星链-31488 (STARLINK-31488 )

导读

STARLINK-31488是美国太空探索技术公司星链(Starlink)卫星互联网项目的卫星,于2024年2月23日发射升空。它属于星链低轨卫星星座的扩容卫星,旨在为全球提供高速低延迟互联网服务,补充完善星座覆盖范围与服务能力,是美国构建低轨卫星通信网络的组成部分。

Basic Information
目录编号:
59009
目录名称:
STARLINK-31488
国际标识:
2024-036M
轨道中心:
EARTH
卫星名称:
星链-31488
卫星全名:
星链-31488 (STARLINK-31488 )
卫星状态:
在轨 (已飞行846 天)
发射日期:
2024-02-23 UTC
国别 :
美国 (US)
星等 :
--
Orbit Information
数据来源 国际轨道数据 AOE轨道数据
星历时间 2026-06-18T01:36:13+0800
12小时前
查看轨道信息
2026-06-17T08:00:00+0800
1天前
查看轨道信息
半长轴 6853.388km 6853.332km
偏心率 0.0001095 0.0000981
轨道倾角 53.162° 53.160°
近地点辐角 75.275° 30.883°
升交点赤经 333.203° 336.612°
平近点角 284.837° 246.434°
近地点 474.5km 474.522km
远地点 476.002km 475.868km
周期 94.106分钟 94.105分钟
每日圈数 15.301881 15.30207
Detailed Information
固有亮度:
5
最大亮度:
0.3
卫星平台:
Starlink v2.0 mini
覆盖范围:
全球
运营商:
太空探索技术公司
运营商所在国:
美国
制造商(研发单位):
太空探索技术公司
制造商所在国:
美国
使用方式:
暂无
Satellite Introduction
星链(Starlink)计划是由太空探索技术公司(SpaceX)提出的一个巨型低轨卫星互联网星座项目,计划在2019年至2024年间在太空搭建由约1.2万颗卫星组成的“星链”网络,其中1584颗将部署在地球上空550千米处的近地轨道,并从2020年开始工作。该卫星仍在工作。
2D Orbit Map
3D Orbit Map
Orbit Altitude Analysis Chart
Orbit Inclination Analysis Chart
Orbit Comprehensive Analysis Chart
View Comprehensive Chart